EN

Hourly Weather Bryansk

Today, 10 May, Monday

Time Temperature Precipitation Wind Pressure Humidity
00:00 +3°C° 0 mm 2 mps 753 mmHg 76%
01:00 +3°C° 0 mm 2 mps 754 mmHg 76%
02:00 +2°C° 0 mm 2 mps 754 mmHg 78%
03:00 +2°C° 0 mm 2 mps 754 mmHg 78%
04:00 +2°C° 0 mm 2 mps 755 mmHg 78%
05:00 +3°C° 0 mm 2 mps 755 mmHg 78%
06:00 +5°C° 0 mm 2 mps 755 mmHg 70%
07:00 +7°C° 0 mm 2 mps 755 mmHg 62%
08:00 +10°C° 0 mm 3 mps 755 mmHg 53%
09:00 +11°C° 0 mm 3 mps 755 mmHg 48%
10:00 +12°C° 0 mm 3 mps 755 mmHg 43%
11:00 +13°C° 0 mm 4 mps 755 mmHg 39%
12:00 +14°C° 0 mm 4 mps 755 mmHg 38%
13:00 +14°C° 0 mm 4 mps 755 mmHg 38%
14:00 +15°C° 0 mm 5 mps 755 mmHg 37%
15:00 +14°C° 0 mm 4 mps 754 mmHg 42%
16:00 +14°C° 0 mm 4 mps 754 mmHg 46%
17:00 +14°C° 0 mm 4 mps 754 mmHg 50%
18:00 +12°C° 0 mm 3 mps 754 mmHg 58%
19:00 +10°C° 0 mm 3 mps 755 mmHg 66%
20:00 +7°C° 0 mm 2 mps 755 mmHg 73%
21:00 +7°C° 0 mm 3 mps 755 mmHg 73%
22:00 +7°C° 0 mm 3 mps 755 mmHg 72%
23:00 +5°C° 0 mm 3 mps 754 mmHg 72%

Tomorrow, 11 May, Tuesday

Time Temperature Precipitation Wind Pressure Humidity
00:00 +5°C° 0 mm 3 mps 754 mmHg 74%
01:00 +5°C° 0 mm 3 mps 754 mmHg 76%
02:00 +4°C° 0 mm 3 mps 754 mmHg 77%
03:00 +5°C° 0 mm 3 mps 754 mmHg 78%
04:00 +5°C° 0 mm 4 mps 754 mmHg 79%
05:00 +5°C° 0 mm 4 mps 754 mmHg 79%
06:00 +7°C° 0 mm 4 mps 754 mmHg 75%
07:00 +9°C° 0 mm 5 mps 754 mmHg 71%
08:00 +12°C° 0 mm 5 mps 754 mmHg 67%
09:00 +14°C° 0 mm 5 mps 753 mmHg 64%
10:00 +16°C° 0 mm 5 mps 753 mmHg 61%
11:00 +19°C° 0 mm 6 mps 753 mmHg 58%
12:00 +20°C° 0 mm 6 mps 753 mmHg 57%
13:00 +21°C° 0 mm 6 mps 752 mmHg 56%
14:00 +21°C° 0 mm 6 mps 752 mmHg 56%
15:00 +21°C° 0.3 mm 6 mps 752 mmHg 62%
16:00 +20°C° 0.3 mm 5 mps 752 mmHg 67%
17:00 +19°C° 0.3 mm 5 mps 752 mmHg 73%
18:00 +16°C° 0.4 mm 5 mps 753 mmHg 79%
19:00 +13°C° 0.4 mm 4 mps 753 mmHg 85%
20:00 +11°C° 0.4 mm 3 mps 754 mmHg 91%
21:00 +10°C° 0 mm 3 mps 754 mmHg 92%
22:00 +9°C° 0 mm 3 mps 754 mmHg 94%
23:00 +8°C° 0 mm 2 mps 754 mmHg 95%

Day after tomorrow, 12 May, Wednesday

Time Temperature Precipitation Wind Pressure Humidity
00:00 +7°C° 0 mm 2 mps 754 mmHg 95%
01:00 +7°C° 0 mm 2 mps 754 mmHg 95%
02:00 +5°C° 0 mm 3 mps 754 mmHg 94%
03:00 +6°C° 0 mm 2 mps 755 mmHg 94%
04:00 +6°C° 0 mm 2 mps 755 mmHg 93%
05:00 +7°C° 0 mm 1 mps 755 mmHg 93%
06:00 +7°C° 0 mm 2 mps 754 mmHg 86%
07:00 +9°C° 0 mm 2 mps 754 mmHg 78%
08:00 +12°C° 0 mm 2 mps 754 mmHg 71%
09:00 +13°C° 0 mm 2 mps 753 mmHg 69%
10:00 +12°C° 0 mm 3 mps 753 mmHg 68%
11:00 +12°C° 0 mm 3 mps 752 mmHg 66%
12:00 +11°C° 0.8 mm 3 mps 751 mmHg 75%
13:00 +10°C° 0.8 mm 3 mps 750 mmHg 83%
14:00 +9°C° 0.8 mm 2 mps 748 mmHg 92%
15:00 +9°C° 2 mm 3 mps 747 mmHg 93%
16:00 +10°C° 2 mm 3 mps 745 mmHg 94%
17:00 +10°C° 2 mm 4 mps 744 mmHg 96%
18:00 +8°C° 1.4 mm 5 mps 744 mmHg 95%
19:00 +7°C° 1.4 mm 6 mps 745 mmHg 94%
20:00 +5°C° 1.4 mm 8 mps 746 mmHg 94%
21:00 +5°C° 0.4 mm 7 mps 746 mmHg 94%
22:00 +7°C° 0.4 mm 6 mps 747 mmHg 94%
23:00 +7°C° 0.4 mm 5 mps 747 mmHg 94%

13 May, Thursday

Time Temperature Precipitation Wind Pressure Humidity
00:00 +7°C° 0 mm 5 mps 747 mmHg 93%
01:00 +7°C° 0 mm 5 mps 747 mmHg 93%
02:00 +7°C° 0 mm 5 mps 748 mmHg 93%
03:00 +7°C° 0 mm 4 mps 748 mmHg 93%
04:00 +7°C° 0 mm 4 mps 748 mmHg 94%
05:00 +8°C° 0 mm 3 mps 748 mmHg 94%
06:00 +9°C° 0 mm 3 mps 748 mmHg 90%
07:00 +10°C° 0 mm 3 mps 748 mmHg 86%
08:00 +11°C° 0 mm 3 mps 748 mmHg 81%
09:00 +12°C° 0.3 mm 4 mps 747 mmHg 78%
10:00 +13°C° 0.3 mm 4 mps 747 mmHg 75%
11:00 +14°C° 0.3 mm 4 mps 747 mmHg 72%
12:00 +14°C° 0.1 mm 4 mps 747 mmHg 68%
13:00 +15°C° 0.1 mm 4 mps 747 mmHg 64%
14:00 +17°C° 0.1 mm 4 mps 747 mmHg 59%
15:00 +15°C° 0 mm 4 mps 747 mmHg 61%
16:00 +16°C° 0 mm 3 mps 747 mmHg 63%
17:00 +16°C° 0 mm 3 mps 747 mmHg 65%
18:00 +14°C° 0 mm 3 mps 747 mmHg 72%
19:00 +13°C° 0 mm 2 mps 747 mmHg 80%
20:00 +10°C° 0 mm 2 mps 747 mmHg 87%
21:00 +10°C° 0 mm 2 mps 747 mmHg 86%
22:00 +10°C° 0 mm 2 mps 747 mmHg 86%
23:00 +10°C° 0 mm 2 mps 747 mmHg 85%

14 May, Friday

Time Temperature Precipitation Wind Pressure Humidity
00:00 +10°C° 0 mm 2 mps 747 mmHg 86%
01:00 +10°C° 0 mm 2 mps 747 mmHg 87%
02:00 +12°C° 0 mm 2 mps 747 mmHg 88%
03:00 +12°C° 0.1 mm 2 mps 746 mmHg 90%
04:00 +11°C° 0.1 mm 3 mps 746 mmHg 92%
05:00 +11°C° 0.1 mm 3 mps 746 mmHg 93%
06:00 +12°C° 0.2 mm 3 mps 746 mmHg 93%
07:00 +13°C° 0.2 mm 3 mps 746 mmHg 92%
08:00 +13°C° 0.2 mm 3 mps 746 mmHg 92%
09:00 +15°C° 0.1 mm 4 mps 745 mmHg 88%
10:00 +17°C° 0.1 mm 4 mps 745 mmHg 85%
11:00 +17°C° 0.1 mm 5 mps 745 mmHg 81%
12:00 +19°C° 0.6 mm 5 mps 744 mmHg 81%
13:00 +19°C° 0.6 mm 5 mps 744 mmHg 81%
14:00 +20°C° 0.6 mm 5 mps 744 mmHg 81%
15:00 +20°C° 0.3 mm 4 mps 743 mmHg 80%
16:00 +21°C° 0.3 mm 4 mps 743 mmHg 79%
17:00 +21°C° 0.3 mm 3 mps 743 mmHg 78%
18:00 +19°C° 0.2 mm 3 mps 743 mmHg 83%
19:00 +18°C° 0.2 mm 2 mps 743 mmHg 88%
20:00 +16°C° 0.2 mm 2 mps 743 mmHg 93%
21:00 +15°C° 0 mm 2 mps 743 mmHg 94%
22:00 +15°C° 0 mm 2 mps 743 mmHg 94%
23:00 +14°C° 0 mm 2 mps 743 mmHg 95%

15 May, Saturday

Time Temperature Precipitation Wind Pressure Humidity
00:00 +14°C° 0 mm 1 mps 743 mmHg 95%
01:00 +14°C° 0 mm 1 mps 743 mmHg 94%
02:00 +13°C° 0 mm 1 mps 743 mmHg 94%
03:00 +14°C° 0 mm 1 mps 743 mmHg 94%
04:00 +14°C° 0 mm 1 mps 743 mmHg 94%
05:00 +14°C° 0 mm 1 mps 743 mmHg 94%
06:00 +16°C° 0 mm 1 mps 743 mmHg 88%
07:00 +18°C° 0 mm 1 mps 743 mmHg 83%
08:00 +19°C° 0 mm 2 mps 743 mmHg 78%
09:00 +20°C° 0.1 mm 2 mps 743 mmHg 71%
10:00 +21°C° 0.1 mm 2 mps 743 mmHg 64%
11:00 +24°C° 0.1 mm 2 mps 743 mmHg 57%
12:00 +23°C° 1 mm 2 mps 743 mmHg 60%
13:00 +23°C° 1 mm 2 mps 742 mmHg 63%
14:00 +23°C° 1 mm 2 mps 742 mmHg 66%
15:00 +21°C° 0.6 mm 2 mps 742 mmHg 69%
16:00 +21°C° 0.6 mm 2 mps 742 mmHg 72%
17:00 +21°C° 0.6 mm 1 mps 742 mmHg 75%
18:00 +20°C° 0.2 mm 1 mps 742 mmHg 79%
19:00 +18°C° 0.2 mm 1 mps 742 mmHg 84%
20:00 +16°C° 0.2 mm 1 mps 742 mmHg 88%
21:00 +15°C° 0.1 mm 1 mps 742 mmHg 89%
22:00 +15°C° 0.1 mm 1 mps 742 mmHg 90%
23:00 +14°C° 0.1 mm 1 mps 742 mmHg 91%
Show more

We Need Your Consent

Meteoprog and our Service Providers may store and access personal data such as cookies, device identifiers or other similar technologies on your device and process such data to personalise content and ads, as well as provide social media features and to analyse the traffic.

  • Store and/or access information on your device

    Cookies, device identifiers or other information can be stored or accessed on your device for the purposes indicated above.

  • Personalised ads and content, ad and content measurement, audience insights, and products development

    Ads and content can be personalised based on a profile. More data can be added to better personalise ads and content. Ad and content performance can be measured. Insights about the audience who saw the ads and content can be derived. Such data can be used to develop or improve user’s experience, systems and software.

By clicking ‘I Agree’ you will allow the use of indicated cookies, device identifiers, web beacons or other similar technologies. Your settings can be changed in the browser on your device.

For certain purposes, legitimate interests may be relied on, rather than consent. You can read more about this in our Privacy and Cookie Policy.